EW5146 Weather Reports


Display with metric or nautical units.
time (UTC)temp
F
wind
direction
speed
MPH
gust
MPH
rain 1hr
in
rain 24hr
in
rain mn
in
humidity
%
barometer
mb
20260902223550 94 274 1.0 4.0 0.00 0.00 0.00 55 1014.6
20260902223105 94 0 0.0 2.0 0.00 0.00 0.00 56 1014.8
20260902222550 95 0 0.0 4.0 0.00 0.00 0.00 55 1014.9
20260902222049 95 325 0.0 4.0 0.00 0.00 0.00 55 1014.7
20260902221559 95 319 1.0 4.0 0.00 0.00 0.00 54 1014.8
20260902221051 95 249 1.0 6.0 0.00 0.00 0.00 54 1014.9
20260902220555 95 257 1.0 6.0 0.00 0.00 0.00 55 1014.8
20260902220104 95 331 0.0 3.0 0.00 0.00 0.00 54 1014.7
20260902215552 94 277 1.0 3.0 0.00 0.00 0.00 55 1014.6
20260902215050 94 277 0.0 3.0 0.00 0.00 0.00 55 1014.7
20260902214615 94 250 0.0 4.0 0.00 0.00 0.00 54 1014.7
20260902214049 94 322 1.0 4.0 0.00 0.00 0.00 55 1014.9
20260902213551 94 285 1.0 3.0 0.00 0.00 0.00 55 1014.9
20260902213100 94 349 0.0 4.0 0.00 0.00 0.00 55 1014.8
20260902212549 94 5 1.0 4.0 0.00 0.00 0.00 54 1014.9
20260902212052 94 236 0.0 3.0 0.00 0.00 0.00 55 1014.8
20260902211559 94 300 1.0 3.0 0.00 0.00 0.00 54 1014.9
20260902211051 94 265 0.0 4.0 0.00 0.00 0.00 56 1014.9
20260902210553 94 322 0.0 4.0 0.00 0.00 0.00 55 1014.9
20260902210058 94 298 1.0 4.0 0.00 0.00 0.00 54 1014.9
20260902205550 94 0 1.0 4.0 0.00 0.00 0.00 56 1015.0
20260902205054 94 291 1.0 4.0 0.00 0.00 0.00 53 1015.0
20260902204558 94 0 0.0 4.0 0.00 0.00 0.00 57 1014.9
20260902204049 95 0 0.0 4.0 0.00 0.00 0.00 54 1015.1
20260902203547 95 169 0.0 3.0 0.00 0.00 0.00 54 1015.1
20260902203101 95 0 1.0 7.0 0.00 0.00 0.00 52 1015.0
20260902202552 95 207 1.0 7.0 0.00 0.00 0.00 54 1015.1
20260902202049 95 269 1.0 3.0 0.00 0.00 0.00 53 1015.2
20260902201603 95 0 1.0 4.0 0.00 0.00 0.00 52 1015.0
20260902201049 95 9 1.0 4.0 0.00 0.00 0.00 53 1015.1
20260902200551 95 302 1.0 4.0 0.00 0.00 0.00 52 1015.2
20260902200058 95 5 1.0 4.0 0.00 0.00 0.00 55 1015.2
20260902195550 95 297 1.0 4.0 0.00 0.00 0.00 53 1015.2
20260902195051 95 260 0.0 5.0 0.00 0.00 0.00 54 1015.3
20260902194557 95 0 1.0 5.0 0.00 0.00 0.00 53 1015.5
20260902194050 95 270 1.0 7.0 0.00 0.00 0.00 54 1015.4
20260902193550 94 229 0.0 7.0 0.00 0.00 0.00 53 1015.5
20260902193104 94 261 0.0 5.0 0.00 0.00 0.00 53 1015.6
20260902192549 94 316 1.0 5.0 0.00 0.00 0.00 54 1015.7
20260902192053 94 286 1.0 5.0 0.00 0.00 0.00 54 1015.7
20260902191557 94 348 1.0 4.0 0.00 0.00 0.00 53 1015.9
20260902191049 94 292 1.0 4.0 0.00 0.00 0.00 53 1015.8
20260902190549 94 316 0.0 4.0 0.00 0.00 0.00 56 1015.9
20260902190057 94 317 0.0 5.0 0.00 0.00 0.00 53 1015.9
20260902185549 94 310 1.0 6.0 0.00 0.00 0.00 55 1015.8
20260902185055 94 0 1.0 6.0 0.00 0.00 0.00 54 1016.1
20260902184601 94 0 1.0 6.0 0.00 0.00 0.00 52 1016.0
20260902184050 93 205 1.0 5.0 0.00 0.00 0.00 54 1016.1
20260902183550 93 295 2.0 6.0 0.00 0.00 0.00 54 1016.0
20260902183057 93 275 1.0 6.0 0.00 0.00 0.00 57 1016.1
20260902182549 93 207 1.0 6.0 0.00 0.00 0.00 57 1016.2
20260902182050 93 208 1.0 6.0 0.00 0.00 0.00 58 1016.2
20260902181602 93 314 1.0 6.0 0.00 0.00 0.00 59 1016.2
20260902181050 93 267 1.0 8.0 0.00 0.00 0.00 57 1016.4
20260902180549 92 0 1.0 8.0 0.00 0.00 0.00 60 1016.5
20260902180105 92 277 0.0 7.0 0.00 0.00 0.00 59 1016.4
20260902175550 92 290 1.0 3.0 0.00 0.00 0.00 61 1016.5
20260902175049 92 0 1.0 4.0 0.00 0.00 0.00 59 1016.6
20260902174609 92 330 1.0 6.0 0.00 0.00 0.00 59 1016.6
20260902174051 92 291 1.0 6.0 0.00 0.00 0.00 58 1016.7
20260902173551 92 145 2.0 6.0 0.00 0.00 0.00 59 1016.7
20260902173106 92 253 0.0 9.0 0.00 0.00 0.00 59 1016.8
20260902172549 92 0 2.0 9.0 0.00 0.00 0.00 58 1017.0
20260902172051 92 0 1.0 7.0 0.00 0.00 0.00 57 1016.9
20260902171609 92 348 1.0 4.0 0.00 0.00 0.00 57 1017.0
20260902171053 92 0 1.0 4.0 0.00 0.00 0.00 59 1016.8
20260902170550 92 344 0.0 5.0 0.00 0.00 0.00 60 1016.9
20260902165550 91 190 1.0 5.0 0.00 0.00 0.00 60 1016.9
20260902165050 91 0 1.0 3.0 0.00 0.00 0.00 60 1017.0
20260902164602 91 312 1.0 4.0 0.00 0.00 0.00 60 1017.1
20260902164049 91 249 1.0 4.0 0.00 0.00 0.00 60 1017.0
20260902163549 91 0 1.0 3.0 0.00 0.00 0.00 61 1017.0
20260902163101 91 313 0.0 3.0 0.00 0.00 0.00 61 1017.1
20260902162553 90 315 0.0 4.0 0.00 0.00 0.00 62 1017.1
20260902162050 90 0 1.0 6.0 0.00 0.00 0.00 60 1017.1
20260902161614 90 294 1.0 6.0 0.00 0.00 0.00 62 1017.2
20260902161050 90 0 0.0 4.0 0.00 0.00 0.00 62 1017.2
20260902160550 90 234 0.0 4.0 0.00 0.00 0.00 65 1017.1
20260902160059 89 278 0.0 4.0 0.00 0.00 0.00 63 1017.3
20260902155550 89 0 1.0 5.0 0.00 0.00 0.00 64 1017.3
20260902155050 89 0 1.0 5.0 0.00 0.00 0.00 65 1017.2
20260902154556 88 294 0.0 4.0 0.00 0.00 0.00 66 1017.3
20260902154049 88 0 0.0 4.0 0.00 0.00 0.00 67 1017.4
20260902153552 88 316 0.0 4.0 0.00 0.00 0.00 66 1017.4
20260902153057 88 23 0.0 3.0 0.00 0.00 0.00 67 1017.5
20260902152549 88 267 0.0 3.0 0.00 0.00 0.00 67 1017.4
20260902152049 87 0 0.0 3.0 0.00 0.00 0.00 69 1017.5
20260902151603 87 258 0.0 6.0 0.00 0.00 0.00 69 1017.5
20260902151050 87 310 1.0 6.0 0.00 0.00 0.00 68 1017.5
20260902150549 87 0 0.0 3.0 0.00 0.00 0.00 71 1017.7
20260902150103 86 0 0.0 5.0 0.00 0.00 0.00 69 1017.7
20260902145549 86 273 0.0 5.0 0.00 0.00 0.00 69 1017.5
20260902145049 86 295 1.0 3.0 0.00 0.00 0.00 71 1017.4
20260902144618 86 0 0.0 3.0 0.00 0.00 0.00 71 1017.5
20260902144049 85 263 0.0 4.0 0.00 0.00 0.00 72 1017.5
20260902143550 85 282 0.0 4.0 0.00 0.00 0.00 74 1017.6
20260902143115 84 281 0.0 4.0 0.00 0.00 0.00 73 1017.5
20260902142549 84 292 0.0 2.0 0.00 0.00 0.00 75 1017.6
20260902142050 83 0 0.0 3.0 0.00 0.00 0.00 76 1017.6
20260902141602 83 292 0.0 3.0 0.00 0.00 0.00 76 1017.7
20260902141051 83 288 0.0 3.0 0.00 0.00 0.00 77 1017.7
20260902140550 82 0 0.0 3.0 0.00 0.00 0.00 79 1017.7
20260902140058 82 284 0.0 3.0 0.00 0.00 0.00 80 1017.7
20260902135549 81 0 0.0 3.0 0.00 0.00 0.00 80 1017.6
20260902135049 81 0 0.0 3.0 0.00 0.00 0.00 82 1017.7
20260902134602 80 0 0.0 2.0 0.00 0.00 0.00 83 1017.7
20260902134049 79 0 0.0 2.0 0.00 0.00 0.00 83 1017.7
20260902133549 79 0 0.0 2.0 0.00 0.00 0.00 85 1017.8
20260902133104 78 0 0.0 2.0 0.00 0.00 0.00 86 1017.7
20260902132549 77 0 0.0 1.0 0.00 0.00 0.00 88 1017.7
20260902132049 77 0 0.0 1.0 0.00 0.00 0.00 89 1017.6
20260902131602 76 0 0.0 1.0 0.00 0.00 0.00 90 1017.5
20260902131049 76 0 0.0 0.0 0.00 0.00 0.00 91 1017.5
20260902130550 76 0 0.0 0.0 0.00 0.00 0.00 91 1017.5
20260902130057 75 0 0.0 0.0 0.00 0.00 0.00 92 1017.4
20260902125549 75 0 0.0 0.0 0.00 0.00 0.00 93 1017.5
20260902125050 74 0 0.0 0.0 0.00 0.00 0.00 93 1017.5
20260902124603 74 0 0.0 0.0 0.00 0.00 0.00 93 1017.5
20260902124053 74 0 0.0 0.0 0.00 0.00 0.00 93 1017.4
20260902123549 74 0 0.0 0.0 0.00 0.00 0.00 93 1017.5
20260902123100 73 0 0.0 1.0 0.00 0.00 0.00 93 1017.4
20260902122552 73 0 0.0 1.0 0.00 0.00 0.00 94 1017.5
20260902122048 73 0 0.0 0.0 0.00 0.00 0.00 94 1017.5
20260902121611 73 0 0.0 0.0 0.00 0.00 0.00 94 1017.5
20260902121050 73 0 0.0 0.0 0.00 0.00 0.00 94 1017.3
20260902120550 73 0 0.0 0.0 0.00 0.00 0.00 94 1017.4
20260902120110 73 0 0.0 0.0 0.00 0.00 0.00 94 1017.4
20260902115552 72 0 0.0 0.0 0.00 0.00 0.00 94 1017.4
20260902115049 72 0 0.0 0.0 0.00 0.00 0.00 94 1017.3
20260902114617 72 0 0.0 0.0 0.00 0.00 0.00 94 1017.2
20260902114047 72 0 0.0 0.0 0.00 0.00 0.00 94 1017.1
20260902113550 72 0 0.0 0.0 0.00 0.00 0.00 93 1017.2
20260902113104 72 0 0.0 0.0 0.00 0.00 0.00 93 1017.1
20260902112550 72 0 0.0 0.0 0.00 0.00 0.00 93 1017.0
20260902112050 72 0 0.0 0.0 0.00 0.00 0.00 94 1016.9
20260902111606 72 0 0.0 0.0 0.00 0.00 0.00 94 1016.9
20260902111049 72 0 0.0 1.0 0.00 0.00 0.00 94 1016.8
20260902110549 72 0 0.0 1.0 0.00 0.00 0.00 93 1016.8
20260902110107 72 0 0.0 0.0 0.00 0.00 0.00 93 1016.8
20260902105549 73 0 0.0 0.0 0.00 0.00 0.00 93 1016.9
20260902105049 73 0 0.0 0.0 0.00 0.00 0.00 93 1017.0
20260902104604 73 0 0.0 0.0 0.00 0.00 0.00 93 1016.9
20260902104052 73 0 0.0 0.0 0.00 0.00 0.00 93 1016.9
20260902103554 73 0 0.0 0.0 0.00 0.00 0.00 93 1017.0
20260902103120 73 0 0.0 0.0 0.00 0.00 0.00 93 1016.8
20260902102549 73 0 0.0 0.0 0.00 0.00 0.00 93 1016.7
20260902102050 73 0 0.0 0.0 0.00 0.00 0.00 93 1016.8
20260902101600 73 0 0.0 0.0 0.00 0.00 0.00 93 1016.7
20260902101049 73 0 0.0 0.0 0.00 0.00 0.00 93 1016.8
20260902100550 73 0 0.0 1.0 0.00 0.00 0.00 93 1016.6
20260902100101 73 0 0.0 1.0 0.00 0.00 0.00 93 1016.6
20260902095549 73 0 0.0 1.0 0.00 0.00 0.00 93 1016.6
20260902095050 73 0 0.0 0.0 0.00 0.00 0.00 92 1016.5
20260902094600 73 0 0.0 0.0 0.00 0.00 0.00 92 1016.6
20260902094050 73 0 0.0 0.0 0.00 0.00 0.00 92 1016.6
20260902093550 73 0 0.0 0.0 0.00 0.00 0.00 92 1016.6
20260902093109 73 0 0.0 0.0 0.00 0.00 0.00 92 1016.6
20260902092549 73 0 0.0 0.0 0.00 0.00 0.00 92 1016.7
20260902092052 73 0 0.0 0.0 0.00 0.00 0.00 92 1016.7
20260902091601 73 0 0.0 0.0 0.00 0.00 0.00 92 1016.6
20260902091049 73 0 0.0 0.0 0.00 0.00 0.00 92 1016.7
20260902090551 73 0 0.0 0.0 0.00 0.00 0.00 92 1016.6
20260902085549 73 0 0.0 0.0 0.00 0.00 0.00 92 1016.5
20260902085050 73 0 0.0 0.0 0.00 0.00 0.00 92 1016.4
20260902084600 74 0 0.0 0.0 0.00 0.00 0.00 92 1016.4
20260902084053 74 0 0.0 0.0 0.00 0.00 0.00 92 1016.3
20260902083549 74 0 0.0 0.0 0.00 0.00 0.00 91 1016.2
20260902083055 74 0 0.0 0.0 0.00 0.00 0.00 91 1016.2
20260902082549 74 0 0.0 0.0 0.00 0.00 0.00 91 1016.1
20260902082049 74 0 0.0 0.0 0.00 0.00 0.00 91 1016.1
20260902081601 74 0 0.0 0.0 0.00 0.00 0.00 91 1016.1
20260902081049 74 0 0.0 0.0 0.00 0.00 0.00 91 1016.0
20260902080551 74 0 0.0 0.0 0.00 0.00 0.00 91 1015.9
20260902080105 74 0 0.0 0.0 0.00 0.00 0.00 91 1015.9
20260902075551 74 0 0.0 0.0 0.00 0.00 0.00 91 1016.0
20260902075049 74 0 0.0 0.0 0.00 0.00 0.00 91 1016.0
20260902074614 74 0 0.0 0.0 0.00 0.00 0.00 91 1016.0
20260902074050 74 0 0.0 0.0 0.00 0.00 0.00 90 1016.0
20260902073553 74 0 0.0 0.0 0.00 0.00 0.00 90 1016.0
20260902073109 74 0 0.0 0.0 0.00 0.00 0.00 90 1015.9
20260902072549 74 0 0.0 0.0 0.00 0.00 0.00 90 1015.9
20260902072049 74 0 0.0 0.0 0.00 0.00 0.00 90 1015.9
20260902071604 75 0 0.0 0.0 0.00 0.00 0.00 90 1015.8
20260902071049 75 0 0.0 0.0 0.00 0.00 0.00 90 1015.9
20260902070548 75 0 0.0 0.0 0.00 0.00 0.00 90 1015.8
20260902070106 75 0 0.0 0.0 0.00 0.00 0.00 90 1015.8
20260902065549 75 0 0.0 0.0 0.00 0.00 0.00 90 1015.7
20260902065053 75 0 0.0 0.0 0.00 0.00 0.00 89 1015.8
20260902064602 75 0 0.0 0.0 0.00 0.00 0.00 89 1015.7
20260902064052 75 0 0.0 0.0 0.00 0.00 0.00 89 1015.7
20260902063549 75 0 0.0 0.0 0.00 0.00 0.00 89 1015.8
20260902063104 75 0 0.0 0.0 0.00 0.00 0.00 89 1015.7
20260902062549 75 0 0.0 0.0 0.00 0.00 0.00 89 1015.8
20260902062050 75 0 0.0 0.0 0.00 0.00 0.00 89 1015.7
20260902061603 75 0 0.0 0.0 0.00 0.00 0.00 89 1015.9
20260902061050 75 0 0.0 0.0 0.00 0.00 0.00 88 1016.0
20260902060550 76 0 0.0 0.0 0.00 0.00 0.00 88 1016.0
20260902060119 76 0 0.0 0.0 0.00 0.00 0.00 88 1016.0
20260902055549 76 0 0.0 0.0 0.00 0.00 0.00 88 1015.9
20260902055045 76 0 0.0 0.0 0.00 0.00 0.00 88 1016.0
20260902054559 76 0 0.0 0.0 0.00 0.00 0.00 88 1015.9
20260902054049 76 0 0.0 0.0 0.00 0.00 0.00 88 1015.8
20260902053551 76 0 0.0 0.0 0.00 0.00 0.00 88 1016.0
20260902053105 76 0 0.0 0.0 0.00 0.00 0.00 87 1015.9
20260902052549 76 0 0.0 0.0 0.00 0.00 0.00 87 1015.9
20260902052050 76 0 0.0 0.0 0.00 0.00 0.00 87 1015.9
20260902051558 76 0 0.0 0.0 0.00 0.00 0.00 87 1015.8
20260902051049 76 0 0.0 0.0 0.00 0.00 0.00 87 1015.9
20260902050550 76 0 0.0 0.0 0.00 0.00 0.00 86 1015.9
20260902050105 77 0 0.0 0.0 0.00 0.00 0.00 86 1016.0
20260902045545 77 0 0.0 0.0 0.00 0.00 0.00 86 1016.0
20260902045047 77 0 0.0 0.0 0.00 0.00 0.00 86 1015.9
20260902044604 77 0 0.0 0.0 0.00 0.00 0.00 86 1016.0
20260902044046 77 0 0.0 0.0 0.00 0.00 0.00 86 1015.9
20260902043549 77 0 0.0 0.0 0.00 0.00 0.00 86 1015.9
20260902043102 77 0 0.0 0.0 0.00 0.00 0.00 85 1015.8
20260902042553 77 0 0.0 0.0 0.00 0.00 0.00 85 1016.1
20260902042049 77 0 0.0 0.0 0.00 0.00 0.00 85 1016.0
20260902041556 78 0 0.0 0.0 0.00 0.00 0.00 85 1016.0
20260902041048 78 0 0.0 0.0 0.00 0.00 0.00 84 1015.9
20260902040549 78 0 0.0 0.0 0.00 0.00 0.00 84 1015.8
20260902040105 78 0 0.0 0.0 0.00 0.00 0.00 84 1015.8
20260902035545 78 0 0.0 0.0 0.00 0.00 0.00 84 1015.9
20260902035047 78 0 0.0 0.0 0.00 0.00 0.00 83 1015.9
20260902034607 78 0 0.0 0.0 0.00 0.00 0.00 83 1016.0
20260902034045 78 0 0.0 0.0 0.00 0.00 0.00 83 1016.0
20260902033546 78 0 0.0 0.0 0.00 0.00 0.00 83 1015.9
20260902033105 79 0 0.0 0.0 0.00 0.00 0.00 83 1015.9
20260902032547 79 0 0.0 0.0 0.00 0.00 0.00 83 1015.9
20260902032049 79 0 0.0 0.0 0.00 0.00 0.00 82 1015.9
20260902031559 79 0 0.0 1.0 0.00 0.00 0.00 82 1016.0
20260902031051 79 0 0.0 1.0 0.00 0.00 0.00 83 1015.9
20260902030549 79 0 0.0 1.0 0.00 0.00 0.00 82 1015.9
20260902030057 79 0 0.0 0.0 0.00 0.00 0.00 82 1015.9
20260902025546 79 0 0.0 0.0 0.00 0.00 0.00 82 1015.9
20260902025049 79 0 0.0 0.0 0.00 0.00 0.00 82 1015.9
20260902024601 79 0 0.0 0.0 0.00 0.00 0.00 82 1015.9
20260902024045 79 0 0.0 1.0 0.00 0.00 0.00 82 1015.9
20260902023545 79 0 0.0 1.0 0.00 0.00 0.00 82 1015.8
20260902023054 79 0 0.0 0.0 0.00 0.00 0.00 82 1015.8
20260902022545 79 0 0.0 0.0 0.00 0.00 0.00 82 1015.7
20260902022050 80 0 0.0 0.0 0.00 0.00 0.00 81 1015.8
20260902021553 80 0 0.0 0.0 0.00 0.00 0.00 81 1015.8
20260902021049 80 0 0.0 0.0 0.00 0.00 0.00 81 1015.8
20260902020549 80 0 0.0 0.0 0.00 0.00 0.00 80 1015.8
20260902015545 80 0 0.0 0.0 0.00 0.00 0.00 79 1015.9
20260902015049 81 0 0.0 0.0 0.00 0.00 0.00 79 1015.8
20260902014554 81 0 0.0 0.0 0.00 0.00 0.00 78 1015.7
20260902014048 81 0 0.0 0.0 0.00 0.00 0.00 78 1015.8
20260902013549 81 0 0.0 0.0 0.00 0.00 0.00 77 1015.7
20260902013058 81 0 0.0 0.0 0.00 0.00 0.00 77 1015.8
20260902012548 82 0 0.0 0.0 0.00 0.00 0.00 76 1015.7
20260902012048 82 0 0.0 0.0 0.00 0.00 0.00 75 1015.7
20260902011557 82 0 0.0 0.0 0.00 0.00 0.00 74 1015.5
20260902011047 83 0 0.0 0.0 0.00 0.00 0.00 74 1015.7
20260902010545 83 0 0.0 0.0 0.00 0.00 0.00 73 1015.5
20260902010058 83 0 0.0 0.0 0.00 0.00 0.00 73 1015.5
20260902005545 84 0 0.0 0.0 0.00 0.00 0.00 72 1015.5
20260902005047 84 0 0.0 0.0 0.00 0.00 0.00 71 1015.4
20260902004601 84 0 0.0 0.0 0.00 0.00 0.00 70 1015.4
20260902004052 85 0 0.0 0.0 0.00 0.00 0.00 70 1015.4
20260902003549 85 0 0.0 0.0 0.00 0.00 0.00 69 1015.4
20260902003059 86 0 0.0 0.0 0.00 0.00 0.00 68 1015.4
20260902002547 86 0 0.0 0.0 0.00 0.00 0.00 68 1015.3
20260902002048 87 0 0.0 0.0 0.00 0.00 0.00 67 1015.3
20260902001601 87 0 0.0 0.0 0.00 0.00 0.00 66 1015.4
20260902001045 88 0 0.0 0.0 0.00 0.00 0.00 65 1015.4
20260902000549 88 0 0.0 0.0 0.00 0.00 0.00 64 1015.4
20260902000058 89 0 0.0 0.0 0.00 0.00 0.00 64 1015.4
20260901235549 89 0 0.0 1.0 0.00 0.00 0.00 63 1015.5
20260901235045 89 0 0.0 1.0 0.00 0.00 0.00 61 1015.5
20260901234613 90 0 0.0 0.0 0.00 0.00 0.00 60 1015.5
20260901234045 90 0 0.0 1.0 0.00 0.00 0.00 61 1015.5
20260901233552 90 0 0.0 2.0 0.00 0.00 0.00 60 1015.4
20260901233108 91 0 0.0 2.0 0.00 0.00 0.00 57 1015.6
20260901232549 91 0 0.0 2.0 0.00 0.00 0.00 58 1015.6
20260901232049 91 0 0.0 3.0 0.00 0.00 0.00 58 1015.7
20260901231600 92 0 0.0 3.0 0.00 0.00 0.00 56 1015.6
20260901231048 92 0 0.0 3.0 0.00 0.00 0.00 57 1015.6
20260901230549 92 0 0.0 3.0 0.00 0.00 0.00 56 1015.7
20260901230058 93 0 0.0 2.0 0.00 0.00 0.00 54 1015.6
20260901225550 94 0 0.0 2.0 0.00 0.00 0.00 54 1015.6
20260901225045 94 0 0.0 2.0 0.00 0.00 0.00 54 1015.5
20260901224602 95 0 0.0 2.0 0.00 0.00 0.00 52 1015.5
20260901224048 95 290 0.0 4.0 0.00 0.00 0.00 54 1015.5